Flag for Germany Past Weather in Rheda-Wiedenbrück, North Rhine-Westphalia, Germany — Yesterday and Last 2 Weeks

Now
63 °F

Clear.


Feels Like: 63 °F
Forecast: 56 / 69 °F
Wind: 6 mph from South

Location: Paderborn / Lippstadt

Current Time: Jul 30, 2016 at 5:34:29 AM

Latest Report: Jul 30, 2016 at 4:50 AM


Visibility: 10 mi

Pressure: 29.89 "Hg

Humidity: 77%

Dew Point: 55 °F

Location of Rheda-WiedenbrückLocation

Past Weather in Rheda-Wiedenbrück — Graph

°F

Rheda-Wiedenbrück Temperature Yesterday

Maximum temperature yesterday: 72 °F (at 3:50 PM)
Minimum temperature yesterday: 59 °F (at 6:50 AM)
Average temperature yesterday: 65 °F

High & Low Weather Summary for the Past Weeks

 TemperatureHumidityPressure
High91 °F (Jul 20, 5:20 PM)100% (Jul 22, 1:50 PM)30.27 "Hg (Jul 22, 1:50 PM)
Low52 °F (Jul 15, 4:20 AM)23% (Jul 20, 5:20 PM)29.86 "Hg (Jul 29, 7:20 PM)
Average68 °F71%30.08 "Hg
* Reported Jul 15 4:20 AM — Jul 30 4:20 AM, Rheda-Wiedenbrück, Weather by CustomWeather, © 2016

Note: Actual official high and low records may vary slightly from our data, if they occured in-between our weather recording intervals... More about our weather records

Advertising

Rheda-Wiedenbrück Weather History for the Previous 24 Hours

Scroll right to see more
 ConditionsComfort  
Time TempWeatherWind HumidityBarometerVisibility
4:20 AM
Sat, Jul 30
59 °FClear.6 mph88%29.92 "Hg10 mi
3:50 AM59 °FClear.5 mph88%29.92 "Hg10 mi
3:20 AM61 °FClear.5 mph83%29.92 "Hg10 mi
2:50 AM61 °FClear.6 mph83%29.92 "Hg10 mi
2:20 AM61 °FClear.6 mph83%29.92 "Hg10 mi
1:50 AM61 °FClear.3 mph83%29.92 "Hg10 mi
1:20 AM63 °FClear.2 mph83%29.92 "Hg10 mi
12:50 AM63 °FClear.2 mph88%29.92 "Hg10 mi
12:20 AM64 °FPassing clouds.3 mph78%29.92 "HgN/A
11:50 PM
Fri, Jul 29
64 °FPassing clouds.6 mph78%29.92 "HgN/A
11:20 PM64 °FPassing clouds.3 mph83%29.92 "HgN/A
10:50 PM66 °FPassing clouds.3 mph78%29.92 "HgN/A
10:20 PM66 °FPassing clouds.7 mph78%29.89 "HgN/A
9:50 PM66 °FScattered clouds.9 mph78%29.89 "HgN/A
9:20 PM66 °FSunny.8 mph78%29.89 "Hg10 mi
8:50 PM66 °FSunny.8 mph78%29.89 "Hg10 mi
8:20 PM68 °FSunny.8 mph69%29.89 "Hg10 mi
7:50 PM70 °FSunny.10 mph64%29.86 "Hg10 mi
7:20 PM70 °FPassing clouds.12 mph64%29.86 "HgN/A
6:50 PM70 °FSunny.13 mph69%29.89 "Hg10 mi
6:20 PM70 °FScattered showers. Scattered clouds.9 mph69%29.89 "HgN/A
5:50 PM68 °FSprinkles. Broken clouds.16 mph73%29.89 "HgN/A
5:20 PM70 °FScattered showers. Broken clouds.14 mph64%29.89 "HgN/A
4:50 PM72 °FBroken clouds.15 mph61%29.89 "HgN/A
4:20 PM72 °FScattered clouds.9 mph61%29.89 "HgN/A
3:50 PM72 °FScattered clouds.12 mph65%29.89 "HgN/A
3:20 PM70 °FScattered clouds.13 mph69%29.89 "HgN/A
2:50 PM68 °FBroken clouds.15 mph73%29.92 "HgN/A
2:20 PM70 °FBroken clouds.18 mph69%29.89 "HgN/A
1:50 PM70 °FScattered clouds.14 mph69%29.89 "HgN/A
1:20 PM68 °FScattered clouds.12 mph73%29.92 "HgN/A
12:50 PM66 °FSprinkles. Scattered clouds.12 mph73%29.92 "HgN/A
12:20 PM66 °FScattered clouds.13 mph73%29.92 "HgN/A
11:50 AM68 °FScattered clouds.13 mph69%29.92 "HgN/A
11:20 AM68 °FScattered clouds.13 mph69%29.92 "HgN/A
10:50 AM66 °FScattered clouds.12 mph73%29.92 "HgN/A
10:20 AM66 °FScattered clouds.10 mph73%29.92 "HgN/A
9:50 AM64 °FScattered clouds.10 mph78%29.92 "HgN/A
9:20 AM63 °FPartly sunny.12 mph83%29.95 "HgN/A
8:50 AM63 °FBroken clouds.9 mph83%29.92 "HgN/A
8:20 AM63 °FBroken clouds.7 mph83%29.92 "HgN/A
7:50 AM61 °FDrizzle. Broken clouds.3 mph88%29.95 "Hg4 mi
7:20 AM59 °FDrizzle. Broken clouds.5 mph94%29.92 "Hg4 mi
6:50 AM59 °FDrizzle. Broken clouds.8 mph88%29.95 "Hg3 mi
6:20 AM61 °FPartly cloudy.7 mph83%29.95 "Hg4 mi
5:50 AM61 °FPassing clouds.8 mph88%29.92 "HgN/A
5:20 AM61 °FClear.8 mph88%29.92 "Hg10 mi
Weather by CustomWeather, © 2016

See weather overviewHow to use our weather pages